International Virtual Aviation Organisation

Russian Federation and Kazakhstan MCD

 

Карточка аэропорта UHWW

Внимание!
Информация на этой странице в стадии наполнения.
Если вы не увидели какой-то информации, или заметили неточность - пожалуйста сообщите нам!
Спасибо!
Команда RU-STAFF
Название аэропортаКневичи
Название аэропорта (англ.)Knevichi
Превышение59 ft. (18 m.)
Координаты43°23.886', 132°8.9400000000001'
Высота перехода1800m
Эшелон переходаFL080
Коды ответчика5050-5077
Зона ОрВДХабаровск РПИ (UHHH)
Данные METARUHWW 041030Z 36002MPS 9999 NSC M08/M12 Q1025 R25L/810060 NOSIG RMK QFE767
Проноз погоды (TAF)UHWW 040800Z 0409/0509 VRB01MPS 9999 NSC BECMG 0423/0501 32003MPS SCT033
NOTAMshow/hide NOTAM
AWOS   TABLE

Информация о ВПП

ВПП Длина ВПП (м.) Покрытие Курс ВПП Частота ILS
07R3500Бетон71109.3
25L3500Бетон251110.1

Диспетчерские позиции

Позывной Наименование органа УВД Частота
UHWW_APPВладивосток-Подход124.7
UHWW_R_APPВладивосток-Круг119.5
UHWW_TWRВладивосток-Старт126.0
UHWW_GNDВладивосток-Руление121.7
UHWW-FM1Машина сопровождения121.700



Спутниковое изображение